Regional Weather Roundup
Issued by NWS Austin/San Antonio, TX

Home | Current Version | Previous Version | Text Only | Print | Product List | Glossary On
Versions: 1 2 3 4 5 6 7 8 9 10 11 12 13 14 15 16 17 18 19 20 21 22 23 24 25 26 27 28 29 30 31 32 33 34 35 36 37 38 39 40 41 42 43 44 45 46 47 48 49 50
000
ASUS44 KEWX 130801
RWREWX
SOUTH TEXAS REGIONAL WEATHER ROUNDUP
NATIONAL WEATHER SERVICE AUSTIN/SAN ANTONIO TX
200 AM CST WED DEC 13 2017

NOTE: "FAIR" INDICATED FEW OR NO CLOUDS BELOW 12,000 FEET WITH NO
SIGNIFICANT WEATHER AND/OR OBSTRUCTIONS TO VISIBILITY.

* - THESE STATIONS ARE NOT NWS OR FAA STATIONS...AND ARE NOT SUBJECT
    TO NWS AND FAA QUALITY CONTROL.

TXZ171-172-183>190-130900-
TEXAS HILL COUNTRY AND EDWARDS PLATEAU

CITY           SKY/WX    TMP DP  RH WIND       PRES   REMARKS
JUNCTION       PTCLDY    28  25  88 W3        30.21F
*LLANO         CLOUDY    30  27  86 CALM      30.25F
BURNET         CLOUDY    34  27  75 N3        30.22F
*HORSESHOE BAY CLOUDY    33  30  88 S3        30.21F
*KERRVILLE     CLOUDY    29  26  88 N3        30.20F
*FREDERICKSBRG CLOUDY    29  25  86 W3        30.21F
*ROCKSPRINGS   NOT AVBL
*BOERNE STAGE  CLOUDY    32  28  86 CALM      30.22F
*CASTROVILLE   CLOUDY    38  32  78 NW6       30.24F WCI  34
HONDO          CLOUDY    36  29  75 N5        30.21F WCI  32
*UVALDE        CLOUDY    39  32  75 CALM      30.22F
DEL RIO        PTCLDY    39  35  86 CALM      30.20F
LAUGHLIN AFB   NOT AVBL
CARRIZO SPRGS  CLOUDY    41  34  75 CALM      30.21F
*EAGLE PASS    SUNNY     39  34  81 CALM      30.21F
$$

TXZ173-191>194-202-209-217>225-228-130900-
CENTRAL AND SOUTH CENTRAL TEXAS

CITY           SKY/WX    TMP DP  RH WIND       PRES   REMARKS
GEORGETOWN     CLOUDY    35  29  78 CALM      30.21F
AUSTIN/BERGSTM CLOUDY    33  30  88 CALM      30.21F
AUSTIN/MABRY   CLOUDY    43  35  73 CALM      30.21F
*AUSTIN/EXEC   CLOUDY    37  30  75 CALM      30.22S
*LAGO VISTA    CLOUDY    42  31  66 W8        30.19F WCI  37
SAN MARCOS     CLOUDY    33  29  85 W6        30.22F WCI  28
NEW BRAUNFELS  CLOUDY    36  32  85 NW9       30.20F WCI  29
RANDOLPH AFB   NOT AVBL
PT SAN ANTONIO NOT AVBL
SAN ANTONIO    CLOUDY    40  30  67 NW6       30.22F WCI  36
STINSON FIELD  PTCLDY    38  34  85 CALM      30.20F
*LA GRANGE     CLOUDY    34  32  92 CALM      30.20F
*GIDDINGS      CLOUDY    32  30  92 CALM      30.22S
*GONZALES      CLOUDY    36  33  87 CALM      30.22F
$$

TXZ163>164-176>182-195>201-210>213-226-227-235-130900-
SOUTHEAST TEXAS

CITY           SKY/WX    TMP DP  RH WIND       PRES   REMARKS
COLLEGE STN    CLOUDY    36  30  79 CALM      30.21F
*BRYAN         CLOUDY    38  29  70 W6        30.22F WCI  33
*CALDWELL      CLOUDY    36  29  76 N3        30.21F
*CROCKETT        N/A     28  25  86 CALM      30.22F
*BRENHAM       CLOUDY    34  31  90 CALM      30.23R
HUNTSVILLE     CLOUDY    34  28  79 CALM      30.20S
CONROE         CLOUDY    29  28  96 CALM      30.21S
HOUSTON BUSH   CLOUDY    38  33  82 CALM      30.21F
HOUSTON HOBBY  CLOUDY    38  33  82 SW3       30.21S
*HOUSTON SW AP CLOUDY    33  32  97 MISG      30.24R
PEARLAND       CLOUDY    36  33  89 CALM      30.23F
HOUSTON HOOKS  CLOUDY    34  32  92 CALM      30.21F
ELLINGTON FLD  NOT AVBL
SUGAR LAND     CLOUDY    36  33  89 CALM      30.22S
*HOUSTON EXEC  NOT AVBL
*CLEVELAND MUN CLOUDY    30  29  96 CALM      30.22S
*WHARTON       CLOUDY    34  31  91 CALM      30.23F
*COLUMBUS      FAIR      33  31  92 CALM      30.23S
*EAGLE LAKE    CLOUDY    39  33  78 CALM      30.21F
$$

TXZ214>216-236>238-130900-
THE UPPER TEXAS COAST

CITY           SKY/WX    TMP DP  RH WIND       PRES   REMARKS
*ORANGE        PTCLDY    33  33 100 CALM      30.22S
PORT ARTHUR    PTCLDY    34  31  88 MISG      30.20F
GALVESTON      PTCLDY    47  39  74 CALM      30.22F
ANGLETON       CLOUDY    34  31  88 CALM      30.22F
*BAY CITY      CLOUDY    37  32  82 CALM      30.22F
PALACIOS       CLOUDY    40  34  79 NE3       30.22F
$$

TXZ229>234-239>247-130900-
TEXAS COASTAL BEND AND RIO GRANDE PLAINS

CITY           SKY/WX    TMP DP  RH WIND       PRES   REMARKS
VICTORIA       CLOUDY    37  31  78 NW3       30.22F
*BEEVILLE      CLOUDY    45  32  60 N3        30.21F
ROCKPORT       PTCLDY    47  39  74 E6        30.22F WCI  44
*PORT ARANSAS  NOT AVBL
*PORT LAVACA   CLOUDY    38  34  84 N5        30.22F WCI  35
*INGLESIDE     NOT AVBL
CORPUS CHRISTI PTCLDY    47  38  71 NE5       30.22F WCI  45
CORPUS NAS     PTCLDY    55  41  59 NE9       30.22F
*ROBSTOWN      PTCLDY    43  37  78 CALM      30.23F
ALICE          CLOUDY    39  34  82 NW5       30.22F WCI  36
KINGSVILLE NAS CLOUDY    42  37  82 N6        30.22F WCI  38
COTULLA        CLOUDY    45  32  60 SE3       30.21F
*FAITH RANCH   CLEAR     41  36  81 NW6       30.21F WCI  37
LAREDO           N/A    N/A N/A N/A MISG        N/A
$$

TXZ248>255-130900-
DEEP SOUTH TEXAS

CITY           SKY/WX    TMP DP  RH WIND       PRES   REMARKS
BROWNSVILLE    PTCLDY    46  44  93 NW5       30.21F WCI  44
PORT ISABEL    PTCLDY    49  43  80 NW6       30.20F WCI  46
*SOUTH PADRE   NOT AVBL
HARLINGEN      PTCLDY    43  41  93 NW5       30.21F WCI  40
*HEBBRONVILLE  CLOUDY    45  33  61 CALM      30.22F
MCALLEN        CLOUDY    46  42  86 CALM      30.22F
*WESLACO       PTCLDY    44  40  83 CALM      30.22F
FALFURRIAS     CLOUDY    46  39  78 NW3       30.22F
EDINBURG       PTCLDY    43  37  77 CALM      30.23F
*ZAPATA        PTCLDY    43  39  86 CALM      30.22F
$$

TXZ213>215-236>238-242>244-246-247-251-254-255-130900-
CMAN STATIONS

STATION/POSITION TIME  TEMP    WIND        PRES    WAVE
                       AIR SEA DIR/SP/G            HT/PER
                 (UTC) (F)     (DEG/KT/KT) (MB)    (FT/S)
SABINE PASS      0718   43 57  290/  4/  6 1024.3
SEA RIM ST PARK  0700   42     300/  5/  6 1023.4
NORTH JETTY/GLS  0730      57  340/  5/  7 1022.6
EAGLE POINT      0730   50 55  360/  3/  4 1023.1
MORGANS POINT    0730   50 57  310/  3/  4 1022.9
PORT O`CONNOR    0730   54 56   40/  9/ 10 1023.1
MALAQUITE BEACH  0730   55 63  360/  6/  8 1022.7
BAFFIN BAY       0730   53 57  340/  6/  6 1023.5
PORT ISABEL      0730   52 57  320/  5/  5 1022.8
$$




USA.gov is the U.S. government's official web portal to all federal, state and local government web resources and services.